owner,sensor,date,latitude,longitude,vertical_datum,wind_speed,wind_to_direction,wind_speed_of_gust,qcFlag 
TCOON,ioos:station:TCOON:068:1,2013-09-01T00:00:00Z,27.2970,-97.4049,0.0,7.5,136.0,9.6,'11111222,11111222,11111222' 
TCOON,ioos:station:TCOON:068:1,2013-09-01T00:06:00Z,27.2970,-97.4049,0.0,7.1,134.0,10.0,'11111222,11111222,11111222' 
TCOON,ioos:station:TCOON:068:1,2013-09-01T00:12:00Z,27.2970,-97.4049,0.0,7.9,132.0,9.4,'11111222,11111222,11111222' 
TCOON,ioos:station:TCOON:068:1,2013-09-01T00:18:00Z,27.2970,-97.4049,0.0,7.4,132.0,9.2,'11111222,11111222,11111222' 
TCOON,ioos:station:TCOON:068:1,2013-09-01T00:24:00Z,27.2970,-97.4049,0.0,7.5,139.0,9.1,'11111222,11111222,11111222' 
TCOON,ioos:station:TCOON:068:1,2013-09-01T00:30:00Z,27.2970,-97.4049,0.0,7.7,134.0,9.7,'11111222,11111222,11111222' 
TCOON,ioos:station:TCOON:068:1,2013-09-01T00:36:00Z,27.2970,-97.4049,0.0,7.8,136.0,9.4,'11111222,11111222,11111222' 
TCOON,ioos:station:TCOON:068:1,2013-09-01T00:42:00Z,27.2970,-97.4049,0.0,6.8,138.0,9.5,'11111222,11111222,11111222' 
TCOON,ioos:station:TCOON:068:1,2013-09-01T00:48:00Z,27.2970,-97.4049,0.0,7.6,139.0,9.5,'11111222,11111222,11111222' 
TCOON,ioos:station:TCOON:068:1,2013-09-01T00:54:00Z,27.2970,-97.4049,0.0,7.5,138.0,9.1,'11111222,11111222,11111222' 
TCOON,ioos:station:TCOON:068:1,2013-09-01T01:00:00Z,27.2970,-97.4049,0.0,6.5,135.0,8.6,'11111222,11111222,11111222' 
TCOON,ioos:station:TCOON:068:1,2013-09-01T01:06:00Z,27.2970,-97.4049,0.0,7.0,134.0,8.9,'11111222,11111222,11111222' 
TCOON,ioos:station:TCOON:068:1,2013-09-01T01:12:00Z,27.2970,-97.4049,0.0,7.2,140.0,8.5,'11111222,11111222,11111222' 
TCOON,ioos:station:TCOON:068:1,2013-09-01T01:18:00Z,27.2970,-97.4049,0.0,6.7,140.0,8.1,'11111222,11111222,11111222' 
TCOON,ioos:station:TCOON:068:1,2013-09-01T01:24:00Z,27.2970,-97.4049,0.0,7.1,142.0,8.6,'11111222,11111222,11111222' 
TCOON,ioos:station:TCOON:068:1,2013-09-01T01:30:00Z,27.2970,-97.4049,0.0,5.7,141.0,8.1,'11111222,11111222,11111222' 
TCOON,ioos:station:TCOON:068:1,2013-09-01T01:36:00Z,27.2970,-97.4049,0.0,6.3,142.0,7.8,'11111222,11111222,11111222' 
TCOON,ioos:station:TCOON:068:1,2013-09-01T01:42:00Z,27.2970,-97.4049,0.0,6.1,147.0,7.6,'11111222,11111222,11111222' 
TCOON,ioos:station:TCOON:068:1,2013-09-01T01:48:00Z,27.2970,-97.4049,0.0,6.3,146.0,7.6,'11111222,11111222,11111222' 
TCOON,ioos:station:TCOON:068:1,2013-09-01T01:54:00Z,27.2970,-97.4049,0.0,5.8,140.0,7.3,'11111222,11111222,11111222' 
TCOON,ioos:station:TCOON:068:1,2013-09-01T02:00:00Z,27.2970,-97.4049,0.0,5.8,138.0,7.2,'11111222,11111222,11111222' 
TCOON,ioos:station:TCOON:068:1,2013-09-01T02:06:00Z,27.2970,-97.4049,0.0,5.8,145.0,7.9,'11111222,11111222,11111222' 
TCOON,ioos:station:TCOON:068:1,2013-09-01T02:12:00Z,27.2970,-97.4049,0.0,5.6,139.0,6.9,'11111222,11111222,11111222' 
TCOON,ioos:station:TCOON:068:1,2013-09-01T02:18:00Z,27.2970,-97.4049,0.0,6.3,136.0,7.1,'11111222,11111222,11111222' 
TCOON,ioos:station:TCOON:068:1,2013-09-01T02:24:00Z,27.2970,-97.4049,0.0,6.2,137.0,7.2,'11111222,11111222,11111222' 
TCOON,ioos:station:TCOON:068:1,2013-09-01T02:30:00Z,27.2970,-97.4049,0.0,6.4,135.0,7.3,'11111222,11111222,11111222' 
TCOON,ioos:station:TCOON:068:1,2013-09-01T02:36:00Z,27.2970,-97.4049,0.0,5.9,139.0,7.2,'11111222,11111222,11111222' 
TCOON,ioos:station:TCOON:068:1,2013-09-01T02:42:00Z,27.2970,-97.4049,0.0,6.0,139.0,7.2,'11111222,11111222,11111222' 
TCOON,ioos:station:TCOON:068:1,2013-09-01T02:48:00Z,27.2970,-97.4049,0.0,5.8,136.0,7.3,'11111222,11111222,11111222' 
TCOON,ioos:station:TCOON:068:1,2013-09-01T02:54:00Z,27.2970,-97.4049,0.0,5.4,145.0,7.2,'11111222,11111222,11111222' 
TCOON,ioos:station:TCOON:068:1,2013-09-01T03:00:00Z,27.2970,-97.4049,0.0,5.3,138.0,7.1,'11111222,11111222,11111222' 
TCOON,ioos:station:TCOON:068:1,2013-09-01T03:06:00Z,27.2970,-97.4049,0.0,5.7,142.0,6.7,'11111222,11111222,11111222' 
TCOON,ioos:station:TCOON:068:1,2013-09-01T03:12:00Z,27.2970,-97.4049,0.0,5.6,140.0,6.2,'11111222,11111222,11111222' 
TCOON,ioos:station:TCOON:068:1,2013-09-01T03:18:00Z,27.2970,-97.4049,0.0,5.2,139.0,5.9,'11111222,11111222,11111222' 
TCOON,ioos:station:TCOON:068:1,2013-09-01T03:24:00Z,27.2970,-97.4049,0.0,5.4,141.0,6.6,'11111222,11111222,11111222' 
TCOON,ioos:station:TCOON:068:1,2013-09-01T03:30:00Z,27.2970,-97.4049,0.0,5.2,146.0,6.6,'11111222,11111222,11111222' 
TCOON,ioos:station:TCOON:068:1,2013-09-01T03:36:00Z,27.2970,-97.4049,0.0,5.9,145.0,6.8,'11111222,11111222,11111222' 
TCOON,ioos:station:TCOON:068:1,2013-09-01T03:42:00Z,27.2970,-97.4049,0.0,5.4,147.0,7.1,'11111222,11111222,11111222' 
TCOON,ioos:station:TCOON:068:1,2013-09-01T03:48:00Z,27.2970,-97.4049,0.0,4.9,147.0,6.5,'11111222,11111222,11111222' 
TCOON,ioos:station:TCOON:068:1,2013-09-01T03:54:00Z,27.2970,-97.4049,0.0,5.5,152.0,6.7,'11111222,11111222,11111222' 
TCOON,ioos:station:TCOON:068:1,2013-09-01T04:00:00Z,27.2970,-97.4049,0.0,6.3,149.0,7.4,'11111222,11111222,11111222' 
TCOON,ioos:station:TCOON:068:1,2013-09-01T04:06:00Z,27.2970,-97.4049,0.0,6.1,154.0,6.9,'11111222,11111222,11111222' 
TCOON,ioos:station:TCOON:068:1,2013-09-01T04:12:00Z,27.2970,-97.4049,0.0,5.9,151.0,7.0,'11111222,11111222,11111222' 
TCOON,ioos:station:TCOON:068:1,2013-09-01T04:18:00Z,27.2970,-97.4049,0.0,5.7,153.0,7.8,'11111222,11111222,11111222' 
TCOON,ioos:station:TCOON:068:1,2013-09-01T04:24:00Z,27.2970,-97.4049,0.0,6.1,152.0,7.5,'11111222,11111222,11111222' 
TCOON,ioos:station:TCOON:068:1,2013-09-01T04:30:00Z,27.2970,-97.4049,0.0,5.6,152.0,7.4,'11111222,11111222,11111222' 
TCOON,ioos:station:TCOON:068:1,2013-09-01T04:36:00Z,27.2970,-97.4049,0.0,5.2,152.0,6.3,'11111222,11111222,11111222' 
TCOON,ioos:station:TCOON:068:1,2013-09-01T04:42:00Z,27.2970,-97.4049,0.0,5.7,155.0,7.4,'11111222,11111222,11111222' 
TCOON,ioos:station:TCOON:068:1,2013-09-01T04:48:00Z,27.2970,-97.4049,0.0,6.4,157.0,7.9,'11111222,11111222,11111222' 
TCOON,ioos:station:TCOON:068:1,2013-09-01T04:54:00Z,27.2970,-97.4049,0.0,6.3,154.0,8.4,'11111222,11111222,11111222' 
TCOON,ioos:station:TCOON:068:1,2013-09-01T05:00:00Z,27.2970,-97.4049,0.0,6.5,161.0,8.1,'11111222,11111222,11111222' 
TCOON,ioos:station:TCOON:068:1,2013-09-01T05:06:00Z,27.2970,-97.4049,0.0,6.1,154.0,8.1,'11111222,11111222,11111222' 
TCOON,ioos:station:TCOON:068:1,2013-09-01T05:12:00Z,27.2970,-97.4049,0.0,6.7,157.0,7.8,'11111222,11111222,11111222' 
TCOON,ioos:station:TCOON:068:1,2013-09-01T05:18:00Z,27.2970,-97.4049,0.0,6.1,158.0,7.8,'11111222,11111222,11111222' 
TCOON,ioos:station:TCOON:068:1,2013-09-01T05:24:00Z,27.2970,-97.4049,0.0,5.6,158.0,7.2,'11111222,11111222,11111222' 
TCOON,ioos:station:TCOON:068:1,2013-09-01T05:30:00Z,27.2970,-97.4049,0.0,6.6,156.0,8.6,'11111222,11111222,11111222' 
TCOON,ioos:station:TCOON:068:1,2013-09-01T05:36:00Z,27.2970,-97.4049,0.0,6.2,156.0,8.0,'11111222,11111222,11111222' 
TCOON,ioos:station:TCOON:068:1,2013-09-01T05:42:00Z,27.2970,-97.4049,0.0,6.3,156.0,7.3,'11111222,11111222,11111222' 
TCOON,ioos:station:TCOON:068:1,2013-09-01T05:48:00Z,27.2970,-97.4049,0.0,6.7,158.0,7.8,'11111222,11111222,11111222' 
TCOON,ioos:station:TCOON:068:1,2013-09-01T05:54:00Z,27.2970,-97.4049,0.0,6.3,158.0,8.5,'11111222,11111222,11111222' 
TCOON,ioos:station:TCOON:068:1,2013-09-01T06:00:00Z,27.2970,-97.4049,0.0,6.3,157.0,8.3,'11111222,11111222,11111222' 
TCOON,ioos:station:TCOON:068:1,2013-09-01T06:06:00Z,27.2970,-97.4049,0.0,5.9,154.0,7.4,'11111222,11111222,11111222' 
TCOON,ioos:station:TCOON:068:1,2013-09-01T06:12:00Z,27.2970,-97.4049,0.0,6.3,159.0,8.1,'11111222,11111222,11111222' 
TCOON,ioos:station:TCOON:068:1,2013-09-01T06:18:00Z,27.2970,-97.4049,0.0,6.3,159.0,7.7,'11111222,11111222,11111222' 
TCOON,ioos:station:TCOON:068:1,2013-09-01T06:24:00Z,27.2970,-97.4049,0.0,6.4,159.0,8.3,'11111222,11111222,11111222' 
TCOON,ioos:station:TCOON:068:1,2013-09-01T06:30:00Z,27.2970,-97.4049,0.0,6.5,161.0,7.8,'11111222,11111222,11111222' 
TCOON,ioos:station:TCOON:068:1,2013-09-01T06:36:00Z,27.2970,-97.4049,0.0,6.6,163.0,8.5,'11111222,11111222,11111222' 
TCOON,ioos:station:TCOON:068:1,2013-09-01T06:42:00Z,27.2970,-97.4049,0.0,7.7,165.0,8.8,'11111222,11111222,11111222' 
TCOON,ioos:station:TCOON:068:1,2013-09-01T06:48:00Z,27.2970,-97.4049,0.0,7.5,170.0,9.5,'11111222,11111222,11111222' 
TCOON,ioos:station:TCOON:068:1,2013-09-01T06:54:00Z,27.2970,-97.4049,0.0,7.7,168.0,9.0,'11111222,11111222,11111222' 
TCOON,ioos:station:TCOON:068:1,2013-09-01T07:00:00Z,27.2970,-97.4049,0.0,7.1,170.0,8.6,'11111222,11111222,11111222' 
TCOON,ioos:station:TCOON:068:1,2013-09-01T07:06:00Z,27.2970,-97.4049,0.0,6.5,165.0,8.6,'11111222,11111222,11111222' 
TCOON,ioos:station:TCOON:068:1,2013-09-01T07:12:00Z,27.2970,-97.4049,0.0,7.1,167.0,9.0,'11111222,11111222,11111222' 
TCOON,ioos:station:TCOON:068:1,2013-09-01T07:18:00Z,27.2970,-97.4049,0.0,7.5,168.0,8.9,'11111222,11111222,11111222' 
TCOON,ioos:station:TCOON:068:1,2013-09-01T07:24:00Z,27.2970,-97.4049,0.0,8.5,168.0,9.3,'11111222,11111222,11111222' 
TCOON,ioos:station:TCOON:068:1,2013-09-01T07:30:00Z,27.2970,-97.4049,0.0,7.2,169.0,9.1,'11111222,11111222,11111222' 
TCOON,ioos:station:TCOON:068:1,2013-09-01T07:36:00Z,27.2970,-97.4049,0.0,7.4,170.0,9.0,'11111222,11111222,11111222' 
TCOON,ioos:station:TCOON:068:1,2013-09-01T07:42:00Z,27.2970,-97.4049,0.0,6.6,170.0,8.3,'11111222,11111222,11111222' 
TCOON,ioos:station:TCOON:068:1,2013-09-01T07:48:00Z,27.2970,-97.4049,0.0,7.8,169.0,9.2,'11111222,11111222,11111222' 
TCOON,ioos:station:TCOON:068:1,2013-09-01T07:54:00Z,27.2970,-97.4049,0.0,7.6,169.0,8.8,'11111222,11111222,11111222' 
TCOON,ioos:station:TCOON:068:1,2013-09-01T08:00:00Z,27.2970,-97.4049,0.0,6.9,177.0,9.3,'11111222,11111222,11111222' 
TCOON,ioos:station:TCOON:068:1,2013-09-01T08:06:00Z,27.2970,-97.4049,0.0,8.1,180.0,9.2,'11111222,11111222,11111222' 
TCOON,ioos:station:TCOON:068:1,2013-09-01T08:12:00Z,27.2970,-97.4049,0.0,7.6,178.0,9.3,'11111222,11111222,11111222' 
TCOON,ioos:station:TCOON:068:1,2013-09-01T08:18:00Z,27.2970,-97.4049,0.0,8.0,178.0,9.7,'11111222,11111222,11111222' 
TCOON,ioos:station:TCOON:068:1,2013-09-01T08:24:00Z,27.2970,-97.4049,0.0,7.9,179.0,9.4,'11111222,11111222,11111222' 
TCOON,ioos:station:TCOON:068:1,2013-09-01T08:30:00Z,27.2970,-97.4049,0.0,7.8,182.0,9.7,'11111222,11111222,11111222' 
TCOON,ioos:station:TCOON:068:1,2013-09-01T08:36:00Z,27.2970,-97.4049,0.0,8.2,180.0,9.5,'11111222,11111222,11111222' 
TCOON,ioos:station:TCOON:068:1,2013-09-01T08:42:00Z,27.2970,-97.4049,0.0,8.4,182.0,9.8,'11111222,11111222,11111222' 
TCOON,ioos:station:TCOON:068:1,2013-09-01T08:48:00Z,27.2970,-97.4049,0.0,8.6,180.0,9.8,'11111222,11111222,11111222' 
TCOON,ioos:station:TCOON:068:1,2013-09-01T08:54:00Z,27.2970,-97.4049,0.0,7.9,179.0,9.3,'11111222,11111222,11111222' 
TCOON,ioos:station:TCOON:068:1,2013-09-01T09:00:00Z,27.2970,-97.4049,0.0,8.4,181.0,9.8,'11111222,11111222,11111222' 
TCOON,ioos:station:TCOON:068:1,2013-09-01T09:06:00Z,27.2970,-97.4049,0.0,8.1,181.0,9.3,'11111222,11111222,11111222' 
TCOON,ioos:station:TCOON:068:1,2013-09-01T09:12:00Z,27.2970,-97.4049,0.0,8.9,183.0,9.8,'11111222,11111222,11111222' 
TCOON,ioos:station:TCOON:068:1,2013-09-01T09:18:00Z,27.2970,-97.4049,0.0,8.6,183.0,10.0,'11111222,11111222,11111222' 
TCOON,ioos:station:TCOON:068:1,2013-09-01T09:24:00Z,27.2970,-97.4049,0.0,8.6,184.0,9.5,'11111222,11111222,11111222' 
TCOON,ioos:station:TCOON:068:1,2013-09-01T09:30:00Z,27.2970,-97.4049,0.0,8.9,182.0,10.0,'11111222,11111222,11111222' 
TCOON,ioos:station:TCOON:068:1,2013-09-01T09:36:00Z,27.2970,-97.4049,0.0,8.5,181.0,9.9,'11111222,11111222,11111222' 
TCOON,ioos:station:TCOON:068:1,2013-09-01T09:42:00Z,27.2970,-97.4049,0.0,6.6,197.0,9.5,'11111222,11111222,11111222' 
TCOON,ioos:station:TCOON:068:1,2013-09-01T09:48:00Z,27.2970,-97.4049,0.0,7.1,192.0,8.7,'11111222,11111222,11111222' 
TCOON,ioos:station:TCOON:068:1,2013-09-01T09:54:00Z,27.2970,-97.4049,0.0,6.5,193.0,8.0,'11111222,11111222,11111222' 
TCOON,ioos:station:TCOON:068:1,2013-09-01T10:00:00Z,27.2970,-97.4049,0.0,6.8,188.0,8.7,'11111222,11111222,11111222' 
TCOON,ioos:station:TCOON:068:1,2013-09-01T10:06:00Z,27.2970,-97.4049,0.0,5.4,192.0,7.0,'11111222,11111222,11111222' 
TCOON,ioos:station:TCOON:068:1,2013-09-01T10:12:00Z,27.2970,-97.4049,0.0,5.4,192.0,7.3,'11111222,11111222,11111222' 
TCOON,ioos:station:TCOON:068:1,2013-09-01T10:18:00Z,27.2970,-97.4049,0.0,5.7,194.0,7.4,'11111222,11111222,11111222' 
TCOON,ioos:station:TCOON:068:1,2013-09-01T10:24:00Z,27.2970,-97.4049,0.0,5.5,195.0,7.4,'11111222,11111222,11111222' 
TCOON,ioos:station:TCOON:068:1,2013-09-01T10:30:00Z,27.2970,-97.4049,0.0,5.7,199.0,6.4,'11111222,11111222,11111222' 
TCOON,ioos:station:TCOON:068:1,2013-09-01T10:36:00Z,27.2970,-97.4049,0.0,5.7,200.0,6.8,'11111222,11111222,11111222' 
TCOON,ioos:station:TCOON:068:1,2013-09-01T10:42:00Z,27.2970,-97.4049,0.0,4.4,201.0,5.9,'11111222,11111222,11111222' 
TCOON,ioos:station:TCOON:068:1,2013-09-01T10:48:00Z,27.2970,-97.4049,0.0,4.5,201.0,5.2,'11111222,11111222,11111222' 
TCOON,ioos:station:TCOON:068:1,2013-09-01T10:54:00Z,27.2970,-97.4049,0.0,4.5,204.0,5.2,'11111222,11111222,11111222' 
TCOON,ioos:station:TCOON:068:1,2013-09-01T11:00:00Z,27.2970,-97.4049,0.0,4.5,206.0,5.2,'11111222,11111222,11111222' 
TCOON,ioos:station:TCOON:068:1,2013-09-01T11:06:00Z,27.2970,-97.4049,0.0,4.5,204.0,5.4,'11111222,11111222,11111222' 
TCOON,ioos:station:TCOON:068:1,2013-09-01T11:12:00Z,27.2970,-97.4049,0.0,4.7,203.0,5.3,'11111222,11111222,11111222' 
TCOON,ioos:station:TCOON:068:1,2013-09-01T11:18:00Z,27.2970,-97.4049,0.0,4.6,206.0,5.2,'11111222,11111222,11111222' 
TCOON,ioos:station:TCOON:068:1,2013-09-01T11:24:00Z,27.2970,-97.4049,0.0,4.2,202.0,5.0,'11111222,11111222,11111222' 
TCOON,ioos:station:TCOON:068:1,2013-09-01T11:30:00Z,27.2970,-97.4049,0.0,4.1,199.0,4.8,'11111222,11111222,11111222' 
TCOON,ioos:station:TCOON:068:1,2013-09-01T11:36:00Z,27.2970,-97.4049,0.0,4.2,203.0,4.8,'11111222,11111222,11111222' 
TCOON,ioos:station:TCOON:068:1,2013-09-01T11:42:00Z,27.2970,-97.4049,0.0,3.8,199.0,4.7,'11111222,11111222,11111222' 
TCOON,ioos:station:TCOON:068:1,2013-09-01T11:48:00Z,27.2970,-97.4049,0.0,3.8,207.0,4.4,'11111222,11111222,11111222' 
TCOON,ioos:station:TCOON:068:1,2013-09-01T11:54:00Z,27.2970,-97.4049,0.0,3.2,212.0,4.2,'11111222,11111222,11111222' 
TCOON,ioos:station:TCOON:068:1,2013-09-01T12:00:00Z,27.2970,-97.4049,0.0,3.5,206.0,4.0,'11111222,11111222,11111222' 
TCOON,ioos:station:TCOON:068:1,2013-09-01T12:06:00Z,27.2970,-97.4049,0.0,3.6,202.0,4.1,'11111222,11111222,11111222' 
TCOON,ioos:station:TCOON:068:1,2013-09-01T12:12:00Z,27.2970,-97.4049,0.0,3.7,199.0,4.5,'11111222,11111222,11111222' 
TCOON,ioos:station:TCOON:068:1,2013-09-01T12:18:00Z,27.2970,-97.4049,0.0,3.1,200.0,4.4,'11111222,11111222,11111222' 
TCOON,ioos:station:TCOON:068:1,2013-09-01T12:24:00Z,27.2970,-97.4049,0.0,3.2,202.0,3.9,'11111222,11111222,11111222' 
TCOON,ioos:station:TCOON:068:1,2013-09-01T12:30:00Z,27.2970,-97.4049,0.0,3.5,194.0,4.7,'11111222,11111222,11111222' 
TCOON,ioos:station:TCOON:068:1,2013-09-01T12:36:00Z,27.2970,-97.4049,0.0,3.8,192.0,5.1,'11111222,11111222,11111222' 
TCOON,ioos:station:TCOON:068:1,2013-09-01T12:42:00Z,27.2970,-97.4049,0.0,4.1,177.0,5.2,'11111222,11111222,11111222' 
TCOON,ioos:station:TCOON:068:1,2013-09-01T12:48:00Z,27.2970,-97.4049,0.0,4.9,182.0,5.5,'11111222,11111222,11111222' 
TCOON,ioos:station:TCOON:068:1,2013-09-01T12:54:00Z,27.2970,-97.4049,0.0,4.8,178.0,5.7,'11111222,11111222,11111222' 
TCOON,ioos:station:TCOON:068:1,2013-09-01T13:00:00Z,27.2970,-97.4049,0.0,4.2,178.0,5.2,'11111222,11111222,11111222' 
TCOON,ioos:station:TCOON:068:1,2013-09-01T13:06:00Z,27.2970,-97.4049,0.0,3.8,176.0,5.2,'11111222,11111222,11111222' 
TCOON,ioos:station:TCOON:068:1,2013-09-01T13:12:00Z,27.2970,-97.4049,0.0,3.6,174.0,4.2,'11111222,11111222,11111222' 
TCOON,ioos:station:TCOON:068:1,2013-09-01T13:18:00Z,27.2970,-97.4049,0.0,3.6,174.0,4.5,'11111222,11111222,11111222' 
TCOON,ioos:station:TCOON:068:1,2013-09-01T13:24:00Z,27.2970,-97.4049,0.0,3.3,172.0,4.1,'11111222,11111222,11111222' 
TCOON,ioos:station:TCOON:068:1,2013-09-01T13:30:00Z,27.2970,-97.4049,0.0,3.1,164.0,3.9,'11111222,11111222,11111222' 
TCOON,ioos:station:TCOON:068:1,2013-09-01T13:36:00Z,27.2970,-97.4049,0.0,2.8,161.0,3.7,'11111222,11111222,11111222' 
TCOON,ioos:station:TCOON:068:1,2013-09-01T13:42:00Z,27.2970,-97.4049,0.0,2.3,154.0,3.2,'11111222,11111222,11111222' 
TCOON,ioos:station:TCOON:068:1,2013-09-01T13:48:00Z,27.2970,-97.4049,0.0,2.5,165.0,3.2,'11111222,11111222,11111222' 
TCOON,ioos:station:TCOON:068:1,2013-09-01T13:54:00Z,27.2970,-97.4049,0.0,2.8,165.0,3.9,'11111222,11111222,11111222' 
TCOON,ioos:station:TCOON:068:1,2013-09-01T14:00:00Z,27.2970,-97.4049,0.0,2.6,158.0,3.5,'11111222,11111222,11111222' 
TCOON,ioos:station:TCOON:068:1,2013-09-01T14:06:00Z,27.2970,-97.4049,0.0,2.3,157.0,3.3,'11111222,11111222,11111222' 
TCOON,ioos:station:TCOON:068:1,2013-09-01T14:12:00Z,27.2970,-97.4049,0.0,2.7,163.0,3.0,'11111222,11111222,11111222' 
TCOON,ioos:station:TCOON:068:1,2013-09-01T14:18:00Z,27.2970,-97.4049,0.0,3.0,167.0,3.7,'11111222,11111222,11111222' 
TCOON,ioos:station:TCOON:068:1,2013-09-01T14:24:00Z,27.2970,-97.4049,0.0,3.8,179.0,4.7,'11111222,11111222,11111222' 
TCOON,ioos:station:TCOON:068:1,2013-09-01T14:30:00Z,27.2970,-97.4049,0.0,4.1,185.0,4.8,'11111222,11111222,11111222' 
TCOON,ioos:station:TCOON:068:1,2013-09-01T14:36:00Z,27.2970,-97.4049,0.0,4.0,190.0,5.3,'11111222,11111222,11111222' 
TCOON,ioos:station:TCOON:068:1,2013-09-01T14:42:00Z,27.2970,-97.4049,0.0,4.4,190.0,4.8,'11111222,11111222,11111222' 
TCOON,ioos:station:TCOON:068:1,2013-09-01T14:48:00Z,27.2970,-97.4049,0.0,4.9,185.0,5.6,'11111222,11111222,11111222' 
TCOON,ioos:station:TCOON:068:1,2013-09-01T14:54:00Z,27.2970,-97.4049,0.0,4.7,192.0,6.3,'11111222,11111222,11111222' 
TCOON,ioos:station:TCOON:068:1,2013-09-01T15:00:00Z,27.2970,-97.4049,0.0,5.2,190.0,6.2,'11111222,11111222,11111222' 
TCOON,ioos:station:TCOON:068:1,2013-09-01T15:06:00Z,27.2970,-97.4049,0.0,4.9,192.0,5.9,'11111222,11111222,11111222' 
TCOON,ioos:station:TCOON:068:1,2013-09-01T15:12:00Z,27.2970,-97.4049,0.0,5.1,188.0,6.2,'11111222,11111222,11111222' 
TCOON,ioos:station:TCOON:068:1,2013-09-01T15:18:00Z,27.2970,-97.4049,0.0,5.9,190.0,6.6,'11111222,11111222,11111222' 
TCOON,ioos:station:TCOON:068:1,2013-09-01T15:24:00Z,27.2970,-97.4049,0.0,5.8,187.0,6.5,'11111222,11111222,11111222' 
TCOON,ioos:station:TCOON:068:1,2013-09-01T15:30:00Z,27.2970,-97.4049,0.0,5.6,186.0,6.8,'11111222,11111222,11111222' 
TCOON,ioos:station:TCOON:068:1,2013-09-01T15:36:00Z,27.2970,-97.4049,0.0,5.9,186.0,6.5,'11111222,11111222,11111222' 
TCOON,ioos:station:TCOON:068:1,2013-09-01T15:42:00Z,27.2970,-97.4049,0.0,5.9,181.0,6.8,'11111222,11111222,11111222' 
TCOON,ioos:station:TCOON:068:1,2013-09-01T15:48:00Z,27.2970,-97.4049,0.0,5.7,180.0,6.5,'11111222,11111222,11111222' 
TCOON,ioos:station:TCOON:068:1,2013-09-01T15:54:00Z,27.2970,-97.4049,0.0,5.2,182.0,6.6,'11111222,11111222,11111222' 
TCOON,ioos:station:TCOON:068:1,2013-09-01T16:00:00Z,27.2970,-97.4049,0.0,6.1,184.0,6.8,'11111222,11111222,11111222' 
TCOON,ioos:station:TCOON:068:1,2013-09-01T16:06:00Z,27.2970,-97.4049,0.0,5.5,182.0,6.3,'11111222,11111222,11111222' 
TCOON,ioos:station:TCOON:068:1,2013-09-01T16:12:00Z,27.2970,-97.4049,0.0,5.4,180.0,6.2,'11111222,11111222,11111222' 
TCOON,ioos:station:TCOON:068:1,2013-09-01T16:18:00Z,27.2970,-97.4049,0.0,4.4,176.0,5.7,'11111222,11111222,11111222' 
TCOON,ioos:station:TCOON:068:1,2013-09-01T16:24:00Z,27.2970,-97.4049,0.0,5.0,186.0,6.5,'11111222,11111222,11111222' 
TCOON,ioos:station:TCOON:068:1,2013-09-01T16:30:00Z,27.2970,-97.4049,0.0,4.8,183.0,6.5,'11111222,11111222,11111222' 
TCOON,ioos:station:TCOON:068:1,2013-09-01T16:36:00Z,27.2970,-97.4049,0.0,5.3,173.0,6.2,'11111222,11111222,11111222' 
TCOON,ioos:station:TCOON:068:1,2013-09-01T16:42:00Z,27.2970,-97.4049,0.0,4.8,160.0,6.3,'11111222,11111222,11111222' 
TCOON,ioos:station:TCOON:068:1,2013-09-01T16:48:00Z,27.2970,-97.4049,0.0,4.5,168.0,6.1,'11111222,11111222,11111222' 
TCOON,ioos:station:TCOON:068:1,2013-09-01T16:54:00Z,27.2970,-97.4049,0.0,5.0,169.0,6.1,'11111222,11111222,11111222' 
TCOON,ioos:station:TCOON:068:1,2013-09-01T17:00:00Z,27.2970,-97.4049,0.0,4.3,165.0,6.1,'11111222,11111222,11111222' 
TCOON,ioos:station:TCOON:068:1,2013-09-01T17:06:00Z,27.2970,-97.4049,0.0,4.8,162.0,5.7,'11111222,11111222,11111222' 
TCOON,ioos:station:TCOON:068:1,2013-09-01T17:12:00Z,27.2970,-97.4049,0.0,4.8,165.0,6.4,'11111222,11111222,11111222' 
TCOON,ioos:station:TCOON:068:1,2013-09-01T17:18:00Z,27.2970,-97.4049,0.0,5.0,161.0,6.7,'11111222,11111222,11111222' 
TCOON,ioos:station:TCOON:068:1,2013-09-01T17:24:00Z,27.2970,-97.4049,0.0,5.4,167.0,6.5,'11111222,11111222,11111222' 
TCOON,ioos:station:TCOON:068:1,2013-09-01T17:30:00Z,27.2970,-97.4049,0.0,4.5,160.0,5.7,'11111222,11111222,11111222' 
TCOON,ioos:station:TCOON:068:1,2013-09-01T17:36:00Z,27.2970,-97.4049,0.0,5.0,168.0,5.9,'11111222,11111222,11111222' 
TCOON,ioos:station:TCOON:068:1,2013-09-01T17:42:00Z,27.2970,-97.4049,0.0,4.2,175.0,5.0,'11111222,11111222,11111222' 
TCOON,ioos:station:TCOON:068:1,2013-09-01T17:48:00Z,27.2970,-97.4049,0.0,4.6,159.0,5.7,'11111222,11111222,11111222' 
TCOON,ioos:station:TCOON:068:1,2013-09-01T17:54:00Z,27.2970,-97.4049,0.0,4.5,150.0,6.6,'11111222,11111222,11111222' 
TCOON,ioos:station:TCOON:068:1,2013-09-01T18:00:00Z,27.2970,-97.4049,0.0,5.5,137.0,6.5,'11111222,11111222,11111222' 
TCOON,ioos:station:TCOON:068:1,2013-09-01T18:06:00Z,27.2970,-97.4049,0.0,5.1,136.0,6.7,'11111222,11111222,11111222' 
TCOON,ioos:station:TCOON:068:1,2013-09-01T18:12:00Z,27.2970,-97.4049,0.0,5.4,134.0,6.9,'11111222,11111222,11111222' 
TCOON,ioos:station:TCOON:068:1,2013-09-01T18:18:00Z,27.2970,-97.4049,0.0,5.7,134.0,6.7,'11111222,11111222,11111222' 
TCOON,ioos:station:TCOON:068:1,2013-09-01T18:24:00Z,27.2970,-97.4049,0.0,5.6,131.0,7.2,'11111222,11111222,11111222' 
TCOON,ioos:station:TCOON:068:1,2013-09-01T18:30:00Z,27.2970,-97.4049,0.0,6.3,135.0,7.6,'11111222,11111222,11111222' 
TCOON,ioos:station:TCOON:068:1,2013-09-01T18:36:00Z,27.2970,-97.4049,0.0,6.2,132.0,8.7,'11111222,11111222,11111222' 
TCOON,ioos:station:TCOON:068:1,2013-09-01T18:42:00Z,27.2970,-97.4049,0.0,6.2,127.0,7.9,'11111222,11111222,11111222' 
TCOON,ioos:station:TCOON:068:1,2013-09-01T18:48:00Z,27.2970,-97.4049,0.0,5.8,133.0,8.3,'11111222,11111222,11111222' 
TCOON,ioos:station:TCOON:068:1,2013-09-01T18:54:00Z,27.2970,-97.4049,0.0,6.9,130.0,9.2,'11111222,11111222,11111222' 
TCOON,ioos:station:TCOON:068:1,2013-09-01T19:00:00Z,27.2970,-97.4049,0.0,6.5,123.0,8.7,'11111222,11111222,11111222' 
TCOON,ioos:station:TCOON:068:1,2013-09-01T19:06:00Z,27.2970,-97.4049,0.0,6.6,130.0,9.0,'11111222,11111222,11111222' 
TCOON,ioos:station:TCOON:068:1,2013-09-01T19:12:00Z,27.2970,-97.4049,0.0,6.0,128.0,7.8,'11111222,11111222,11111222' 
TCOON,ioos:station:TCOON:068:1,2013-09-01T19:18:00Z,27.2970,-97.4049,0.0,6.9,132.0,9.4,'11111222,11111222,11111222' 
TCOON,ioos:station:TCOON:068:1,2013-09-01T19:24:00Z,27.2970,-97.4049,0.0,6.9,126.0,8.5,'11111222,11111222,11111222' 
TCOON,ioos:station:TCOON:068:1,2013-09-01T19:30:00Z,27.2970,-97.4049,0.0,7.2,126.0,9.1,'11111222,11111222,11111222' 
TCOON,ioos:station:TCOON:068:1,2013-09-01T19:36:00Z,27.2970,-97.4049,0.0,6.9,132.0,8.8,'11111222,11111222,11111222' 
TCOON,ioos:station:TCOON:068:1,2013-09-01T19:42:00Z,27.2970,-97.4049,0.0,6.9,135.0,9.0,'11111222,11111222,11111222' 
TCOON,ioos:station:TCOON:068:1,2013-09-01T19:48:00Z,27.2970,-97.4049,0.0,7.3,125.0,8.9,'11111222,11111222,11111222' 
TCOON,ioos:station:TCOON:068:1,2013-09-01T19:54:00Z,27.2970,-97.4049,0.0,6.7,126.0,9.3,'11111222,11111222,11111222' 
TCOON,ioos:station:TCOON:068:1,2013-09-01T20:00:00Z,27.2970,-97.4049,0.0,7.3,122.0,9.0,'11111222,11111222,11111222' 
TCOON,ioos:station:TCOON:068:1,2013-09-01T20:06:00Z,27.2970,-97.4049,0.0,7.4,127.0,9.5,'11111222,11111222,11111222' 
TCOON,ioos:station:TCOON:068:1,2013-09-01T20:12:00Z,27.2970,-97.4049,0.0,7.3,129.0,9.3,'11111222,11111222,11111222' 
TCOON,ioos:station:TCOON:068:1,2013-09-01T20:18:00Z,27.2970,-97.4049,0.0,6.8,125.0,9.4,'11111222,11111222,11111222' 